Location: Bogis-Bossey
(46.3500°N, 6.1667°E)
Time: 18:25:51
(UTC+00:00)

Cosmos 1624 Rocket - Pass Details

Date: 17 August 2022
Orbit: 756 x 784 km, 74.0° (Epoch: 30 September)

Event Time Altitude Azimuth Distance (km) Brightness Sun altitude
Rises 20:46:39 0° 341° (NNW) 3,257 8.4 -18.9°
Reaches altitude 10° 20:49:06 10° 346° (NNW) 2,331 7.4 -19.2°
Maximum altitude 20:54:18 55° 64° (ENE) 933 4.3 -19.9°
Enters shadow 20:55:56 39° 118° (ESE) 1,153 4.4 -20.1°
